Nissos Mykonos — SYJZ — position and weather

sailwx.info

Track history (hours):
 
Tides and Currents Weather Stations Pressure Air Temp Water Temp Dewpoint Dewpoint Depression Visibility Wind Speed Wind Dir Waves Ship Positions

Nissos Mykonos

Last reported at 2014-Aug-29 19:33 UTC. Time now 2014-Aug-29 22:29 UTC.
Position N 37°29' E 024°57'.

Length 141 m; draft 5.6 m.

Type: Passenger vessel. MMSI: 240389000.

Date/timePositionNaut miles runAvg speedWind from/ knotsBaromVisibWave heightAir tempDewpointWater temp
2014-Aug-29 19:33N 37°29' E 024°57'1312.9
2014-Aug-29 18:34N 37°30' E 025°13'1413.8
2014-Aug-29 17:34N 37°35' E 025°29'3818.3
2014-Aug-29 15:27N 37°41' E 026°17'44 8.7
2014-Aug-29 10:26N 37°33' E 025°23'9 9.9
2014-Aug-29 09:34N 37°28' E 025°14'1412.9
2014-Aug-29 08:28N 37°30' E 024°57'2223.2
2014-Aug-29 07:32N 37°32' E 024°30'3323.8
2014-Aug-29 06:10N 37°38' E 023°50'1422.9
2014-Aug-29 05:33N 37°49' E 023°38'8 7.9
2014-Aug-29 04:33N 37°57' E 023°38'0 0.0
2014-Aug-29 03:34N 37°57' E 023°38'0 0.0
2014-Aug-29 02:34N 37°57' E 023°38'0 0.0
2014-Aug-29 01:34N 37°57' E 023°38'0 0.0
2014-Aug-29 00:34N 37°57' E 023°38'0 0.0
2014-Aug-28 23:34N 37°57' E 023°38'1 0.6
2014-Aug-28 22:34N 37°56' E 023°38'2019.9
2014-Aug-28 21:33N 37°39' E 023°50'2923.8
2014-Aug-28 20:19N 37°31' E 024°26'1924.8
2014-Aug-28 19:33N 37°31' E 024°50'9 8.9
2014-Aug-28 18:34N 37°27' E 024°60'1515.5
2014-Aug-28 17:34N 37°28' E 025°19'2120.1
2014-Aug-28 16:31N 37°36' E 025°44'4319.1
2014-Aug-28 14:17N 37°47' E 026°36'5 5.3
2014-Aug-28 13:25N 37°48' E 026°41'3417.6
2014-Aug-28 11:30N 37°38' E 026°00'2724.3
2014-Aug-28 10:24N 37°33' E 025°27'910.2
2014-Aug-28 09:31N 37°28' E 025°18'1714.7
2014-Aug-28 08:21N 37°30' E 024°57'1924.1
2014-Aug-28 07:34N 37°31' E 024°33'2824.4
2014-Aug-28 06:24N 37°36' E 023°57'1923.1
2014-Aug-28 05:33N 37°48' E 023°38'8 4.2
2014-Aug-28 03:33N 37°57' E 023°38'0 0.0
2014-Aug-28 02:33N 37°57' E 023°38'0 0.0
2014-Aug-28 01:33N 37°57' E 023°38'0 0.0
2014-Aug-28 00:33N 37°57' E 023°38'0 0.0
2014-Aug-27 23:34N 37°57' E 023°38'0 0.0
2014-Aug-27 22:33N 37°57' E 023°38'1615.7
2014-Aug-27 21:33N 37°42' E 023°46'2824.1
2014-Aug-27 20:24N 37°31' E 024°18'2124.7
2014-Aug-27 19:33N 37°32' E 024°44'1513.0
2014-Aug-27 18:23N 37°27' E 025°02'1416.6
2014-Aug-27 17:34N 37°28' E 025°19'2120.7
2014-Aug-27 16:32N 37°35' E 025°44'2315.7
2014-Aug-27 15:06N 37°39' E 026°12'2 0.8
2014-Aug-27 12:32N 37°40' E 026°15'4118.4
2014-Aug-27 10:20N 37°32' E 025°25'7 8.5
2014-Aug-27 09:32N 37°27' E 025°18'7120.8
2014-Aug-27 06:06N 37°38' E 023°49'1323.4
2014-Aug-27 05:33N 37°48' E 023°39'9 9.0
2014-Aug-27 04:33N 37°57' E 023°38'0 0.0
2014-Aug-27 03:33N 37°57' E 023°38'0 0.0
2014-Aug-27 02:33N 37°57' E 023°38'0 0.0
2014-Aug-27 01:33N 37°57' E 023°38'0 0.0
2014-Aug-27 00:33N 37°57' E 023°38'0 0.0
2014-Aug-26 23:33N 37°57' E 023°38'3 3.1
2014-Aug-26 22:34N 37°54' E 023°38'4421.8
2014-Aug-26 20:33N 37°32' E 024°26'2524.1
2014-Aug-26 19:32N 37°29' E 024°57'1313.0
2014-Aug-26 18:33N 37°29' E 025°13'1211.7
2014-Aug-26 17:34N 37°34' E 025°26'2622.7
2014-Aug-26 16:24N 37°30' E 025°58'1719.7
2014-Aug-26 15:33N 37°37' E 026°18'1412.8
2014-Aug-26 14:30N 37°44' E 026°32'8 8.4
2014-Aug-26 13:33N 37°48' E 026°41'2221.3
2014-Aug-26 12:32N 37°37' E 026°18'3919.3
2014-Aug-26 10:31N 37°35' E 025°29'1111.7
2014-Aug-26 09:33N 37°28' E 025°17'1614.4
2014-Aug-26 08:25N 37°30' E 024°57'2123.6
2014-Aug-26 07:32N 37°31' E 024°30'3324.3
2014-Aug-26 06:11N 37°37' E 023°50'1523.7
2014-Aug-26 05:33N 37°49' E 023°38'8 7.7
2014-Aug-26 04:33N 37°57' E 023°38'0 0.0
2014-Aug-26 03:33N 37°57' E 023°38'0 0.0
2014-Aug-26 02:33N 37°57' E 023°38'0 0.0
2014-Aug-26 01:33N 37°57' E 023°38'0 0.0
2014-Aug-26 00:33N 37°57' E 023°38'0 0.0
2014-Aug-25 23:33N 37°57' E 023°38'0 0.0
2014-Aug-25 22:33N 37°57' E 023°38'1917.9
2014-Aug-25 21:31N 37°40' E 023°48'2923.9
2014-Aug-25 20:19N 37°31' E 024°23'2024.7
2014-Aug-25 19:31N 37°31' E 024°48'1111.1
2014-Aug-25 18:33N 37°27' E 025°00'1414.3
2014-Aug-25 17:34N 37°28' E 025°18'2423.1
2014-Aug-25 16:31N 37°35' E 025°47'2115.5
2014-Aug-25 15:10N 37°39' E 026°13'1422.9
2014-Aug-25 14:33N 37°45' E 026°29'10 8.8
2014-Aug-25 13:27N 37°48' E 026°41'2323.1
2014-Aug-25 12:28N 37°39' E 026°14'1011.0
2014-Aug-25 11:33N 37°38' E 026°01'2524.8
2014-Aug-25 10:33N 37°34' E 025°31'1312.9
2014-Aug-25 09:34N 37°27' E 025°16'1614.6
2014-Aug-25 08:30N 37°30' E 024°57'2223.9
2014-Aug-25 07:34N 37°31' E 024°29'4421.8
2014-Aug-25 05:33N 37°49' E 023°38'8 1.1
2014-Aug-24 22:30N 37°56' E 023°38'1919.8
2014-Aug-24 21:33N 37°40' E 023°49'2923.9
2014-Aug-24 20:20N 37°31' E 024°24'2024.5
2014-Aug-24 19:32N 37°31' E 024°48'1312.8
2014-Aug-24 18:33N 37°27' E 025°03'1615.5
2014-Aug-24 17:32N 37°31' E 025°22'3024.6
2014-Aug-24 16:18N 37°38' E 025°59'1111.8
2014-Aug-24 15:22N 37°39' E 026°13'2124.4
2014-Aug-24 14:30N 37°48' E 026°37'3 2.8
2014-Aug-24 13:26N 37°48' E 026°41'2124.2
2014-Aug-24 12:33N 37°40' E 026°16'10 9.8
2014-Aug-24 11:32N 37°39' E 026°03'2924.8
2014-Aug-24 10:22N 37°32' E 025°28'810.1
2014-Aug-24 09:33N 37°28' E 025°19'1818.3
2014-Aug-24 08:33N 37°26' E 024°57'2119.4
2014-Aug-24 07:27N 37°31' E 024°30'2224.7
2014-Aug-24 06:33N 37°34' E 024°03'2423.7
2014-Aug-24 05:34N 37°48' E 023°38'9 9.0
2014-Aug-24 04:33N 37°57' E 023°38'0 0.0
2014-Aug-24 03:33N 37°57' E 023°38'0 0.0
2014-Aug-24 02:33N 37°57' E 023°38'0 0.0
2014-Aug-24 01:33N 37°57' E 023°38'0 0.0
2014-Aug-24 00:33N 37°57' E 023°38'0 0.0
2014-Aug-23 23:33N 37°57' E 023°38'0 0.0
2014-Aug-23 22:33N 37°57' E 023°38'0 0.0
2014-Aug-23 21:33N 37°57' E 023°38'0 0.0
2014-Aug-23 20:33N 37°57' E 023°38'7 7.2
2014-Aug-23 19:33N 37°50' E 023°40'7 0.4
2014-Aug-23 03:33N 37°57' E 023°38'0 0.0
2014-Aug-23 02:33N 37°57' E 023°38'0 0.0
2014-Aug-23 01:33N 37°57' E 023°38'0 0.0
2014-Aug-23 00:33N 37°57' E 023°38'0 0.1
2014-Aug-22 22:33N 37°56' E 023°38'1918.5
2014-Aug-22 21:31N 37°39' E 023°49'2824.4
2014-Aug-22 20:22N 37°31' E 024°23'2024.7
2014-Aug-22 19:33N 37°31' E 024°48'1413.7
2014-Aug-22 18:34N 37°27' E 025°04'1515.4
2014-Aug-22 17:33N 37°31' E 025°23'2724.7
2014-Aug-22 16:27N 37°37' E 025°57'1212.3
2014-Aug-22 15:27N 37°39' E 026°12'2224.3
2014-Aug-22 14:33N 37°48' E 026°37'3 2.8
2014-Aug-22 13:25N 37°48' E 026°41'2123.9
2014-Aug-22 12:33N 37°41' E 026°16'1111.0
2014-Aug-22 11:32N 37°39' E 026°03'2424.7
2014-Aug-22 10:33N 37°33' E 025°33'1312.7
2014-Aug-22 09:32N 37°27' E 025°18'1714.8
2014-Aug-22 08:23N 37°30' E 024°57'2024.2
2014-Aug-22 07:33N 37°31' E 024°32'3424.1
2014-Aug-22 06:08N 37°38' E 023°49'1322.9
2014-Aug-22 05:34N 37°48' E 023°38'9 8.7
2014-Aug-22 04:33N 37°57' E 023°38'0 0.0
2014-Aug-22 03:33N 37°57' E 023°38'0 0.0
2014-Aug-22 02:33N 37°57' E 023°38'0 0.0
2014-Aug-22 01:33N 37°57' E 023°38'0 0.0
2014-Aug-22 00:33N 37°57' E 023°38'0 0.0
2014-Aug-21 23:33N 37°57' E 023°38'0 0.0
2014-Aug-21 22:33N 37°57' E 023°38'1615.7
2014-Aug-21 21:33N 37°42' E 023°45'3224.1
2014-Aug-21 20:14N 37°31' E 024°23'1724.9
2014-Aug-21 19:33N 37°31' E 024°44'1111.2
2014-Aug-21 18:32N 37°26' E 024°57'1717.2
2014-Aug-21 17:33N 37°28' E 025°19'2523.6
2014-Aug-21 16:30N 37°35' E 025°48'1913.3
2014-Aug-21 15:03N 37°39' E 026°12'1325.9
2014-Aug-21 14:33N 37°44' E 026°27'1111.1
2014-Aug-21 13:32N 37°48' E 026°41'2120.9
2014-Aug-21 12:33N 37°41' E 026°16'1111.1
2014-Aug-21 11:32N 37°39' E 026°02'3224.6
2014-Aug-21 10:15N 37°31' E 025°23'5 7.6
2014-Aug-21 09:33N 37°28' E 025°19'1817.8
2014-Aug-21 08:33N 37°26' E 024°57'2120.0
2014-Aug-21 07:30N 37°31' E 024°31'2324.4
2014-Aug-21 06:34N 37°35' E 024°02'2323.1
2014-Aug-21 05:33N 37°48' E 023°38'9 8.6
2014-Aug-21 04:33N 37°57' E 023°38'0 0.0
2014-Aug-21 03:34N 37°57' E 023°38'0 0.0
2014-Aug-21 02:34N 37°57' E 023°38'0 0.0
2014-Aug-21 01:33N 37°57' E 023°38'0 0.0
2014-Aug-21 00:34N 37°57' E 023°38'0 0.0
2014-Aug-20 23:34N 37°57' E 023°38'0 0.1
2014-Aug-20 22:33N 37°57' E 023°38'1918.9
2014-Aug-20 21:33N 37°40' E 023°49'2824.2
2014-Aug-20 20:23N 37°31' E 024°23'2724.3
2014-Aug-20 19:17N 37°30' E 024°57'5 7.1
2014-Aug-20 18:31N 37°27' E 025°03'1615.3
2014-Aug-20 17:29N 37°31' E 025°22'2524.7
2014-Aug-20 16:28N 37°36' E 025°53'1512.1
2014-Aug-20 15:13N 37°39' E 026°12'1724.3
2014-Aug-20 14:32N 37°46' E 026°31'9 7.9
2014-Aug-20 13:27N 37°48' E 026°41'2123.6
2014-Aug-20 12:33N 37°40' E 026°16'1211.8
2014-Aug-20 11:33N 37°39' E 026°01'2424.3
2014-Aug-20 10:32N 37°34' E 025°31'1212.6
2014-Aug-20 09:34N 37°27' E 025°18'1716.5
2014-Aug-20 08:33N 37°26' E 024°57'5722.7
2014-Aug-20 06:04N 37°39' E 023°47'1223.2
2014-Aug-20 05:33N 37°48' E 023°38'9 1.3
2014-Aug-19 23:04N 37°57' E 023°38'611.3
2014-Aug-19 22:33N 37°51' E 023°39'  
Track history (hours):
 
Tides and Currents Weather Stations Pressure Air Temp Water Temp Dewpoint Dewpoint Depression Visibility Wind Speed Wind Dir Waves Ship Positions

Nissos Mykonos

Last reported at 2014-Aug-29 19:33 UTC. Time now 2014-Aug-29 22:29 UTC.
Position N 37°29' E 024°57'.

Length 141 m; draft 5.6 m.

Type: Passenger vessel. MMSI: 240389000.

Date/timePositionNaut miles runAvg speedWind from/ knotsBaromVisibWave heightAir tempDewpointWater temp
2014-Aug-29 19:33N 37°29' E 024°57'1312.9
2014-Aug-29 18:34N 37°30' E 025°13'1413.8
2014-Aug-29 17:34N 37°35' E 025°29'3818.3
2014-Aug-29 15:27N 37°41' E 026°17'44 8.7
2014-Aug-29 10:26N 37°33' E 025°23'9 9.9
2014-Aug-29 09:34N 37°28' E 025°14'1412.9
2014-Aug-29 08:28N 37°30' E 024°57'2223.2
2014-Aug-29 07:32N 37°32' E 024°30'3323.8
2014-Aug-29 06:10N 37°38' E 023°50'1422.9
2014-Aug-29 05:33N 37°49' E 023°38'8 7.9
2014-Aug-29 04:33N 37°57' E 023°38'0 0.0
2014-Aug-29 03:34N 37°57' E 023°38'0 0.0
2014-Aug-29 02:34N 37°57' E 023°38'0 0.0
2014-Aug-29 01:34N 37°57' E 023°38'0 0.0
2014-Aug-29 00:34N 37°57' E 023°38'0 0.0
2014-Aug-28 23:34N 37°57' E 023°38'1 0.6
2014-Aug-28 22:34N 37°56' E 023°38'2019.9
2014-Aug-28 21:33N 37°39' E 023°50'2923.8
2014-Aug-28 20:19N 37°31' E 024°26'1924.8
2014-Aug-28 19:33N 37°31' E 024°50'9 8.9
2014-Aug-28 18:34N 37°27' E 024°60'1515.5
2014-Aug-28 17:34N 37°28' E 025°19'2120.1
2014-Aug-28 16:31N 37°36' E 025°44'4319.1
2014-Aug-28 14:17N 37°47' E 026°36'5 5.3
2014-Aug-28 13:25N 37°48' E 026°41'3417.6
2014-Aug-28 11:30N 37°38' E 026°00'2724.3
2014-Aug-28 10:24N 37°33' E 025°27'910.2
2014-Aug-28 09:31N 37°28' E 025°18'1714.7
2014-Aug-28 08:21N 37°30' E 024°57'1924.1
2014-Aug-28 07:34N 37°31' E 024°33'2824.4
2014-Aug-28 06:24N 37°36' E 023°57'1923.1
2014-Aug-28 05:33N 37°48' E 023°38'8 4.2
2014-Aug-28 03:33N 37°57' E 023°38'0 0.0
2014-Aug-28 02:33N 37°57' E 023°38'0 0.0
2014-Aug-28 01:33N 37°57' E 023°38'0 0.0
2014-Aug-28 00:33N 37°57' E 023°38'0 0.0
2014-Aug-27 23:34N 37°57' E 023°38'0 0.0
2014-Aug-27 22:33N 37°57' E 023°38'1615.7
2014-Aug-27 21:33N 37°42' E 023°46'2824.1
2014-Aug-27 20:24N 37°31' E 024°18'2124.7
2014-Aug-27 19:33N 37°32' E 024°44'1513.0
2014-Aug-27 18:23N 37°27' E 025°02'1416.6
2014-Aug-27 17:34N 37°28' E 025°19'2120.7
2014-Aug-27 16:32N 37°35' E 025°44'2315.7
2014-Aug-27 15:06N 37°39' E 026°12'2 0.8
2014-Aug-27 12:32N 37°40' E 026°15'4118.4
2014-Aug-27 10:20N 37°32' E 025°25'7 8.5
2014-Aug-27 09:32N 37°27' E 025°18'7120.8
2014-Aug-27 06:06N 37°38' E 023°49'1323.4
2014-Aug-27 05:33N 37°48' E 023°39'9 9.0
2014-Aug-27 04:33N 37°57' E 023°38'0 0.0
2014-Aug-27 03:33N 37°57' E 023°38'0 0.0
2014-Aug-27 02:33N 37°57' E 023°38'0 0.0
2014-Aug-27 01:33N 37°57' E 023°38'0 0.0
2014-Aug-27 00:33N 37°57' E 023°38'0 0.0
2014-Aug-26 23:33N 37°57' E 023°38'3 3.1
2014-Aug-26 22:34N 37°54' E 023°38'4421.8
2014-Aug-26 20:33N 37°32' E 024°26'2524.1
2014-Aug-26 19:32N 37°29' E 024°57'1313.0
2014-Aug-26 18:33N 37°29' E 025°13'1211.7
2014-Aug-26 17:34N 37°34' E 025°26'2622.7
2014-Aug-26 16:24N 37°30' E 025°58'1719.7
2014-Aug-26 15:33N 37°37' E 026°18'1412.8
2014-Aug-26 14:30N 37°44' E 026°32'8 8.4
2014-Aug-26 13:33N 37°48' E 026°41'2221.3
2014-Aug-26 12:32N 37°37' E 026°18'3919.3
2014-Aug-26 10:31N 37°35' E 025°29'1111.7
2014-Aug-26 09:33N 37°28' E 025°17'1614.4
2014-Aug-26 08:25N 37°30' E 024°57'2123.6
2014-Aug-26 07:32N 37°31' E 024°30'3324.3
2014-Aug-26 06:11N 37°37' E 023°50'1523.7
2014-Aug-26 05:33N 37°49' E 023°38'8 7.7
2014-Aug-26 04:33N 37°57' E 023°38'0 0.0
2014-Aug-26 03:33N 37°57' E 023°38'0 0.0
2014-Aug-26 02:33N 37°57' E 023°38'0 0.0
2014-Aug-26 01:33N 37°57' E 023°38'0 0.0
2014-Aug-26 00:33N 37°57' E 023°38'0 0.0
2014-Aug-25 23:33N 37°57' E 023°38'0 0.0
2014-Aug-25 22:33N 37°57' E 023°38'1917.9
2014-Aug-25 21:31N 37°40' E 023°48'2923.9
2014-Aug-25 20:19N 37°31' E 024°23'2024.7
2014-Aug-25 19:31N 37°31' E 024°48'1111.1
2014-Aug-25 18:33N 37°27' E 025°00'1414.3
2014-Aug-25 17:34N 37°28' E 025°18'2423.1
2014-Aug-25 16:31N 37°35' E 025°47'2115.5
2014-Aug-25 15:10N 37°39' E 026°13'1422.9
2014-Aug-25 14:33N 37°45' E 026°29'10 8.8
2014-Aug-25 13:27N 37°48' E 026°41'2323.1
2014-Aug-25 12:28N 37°39' E 026°14'1011.0
2014-Aug-25 11:33N 37°38' E 026°01'2524.8
2014-Aug-25 10:33N 37°34' E 025°31'1312.9
2014-Aug-25 09:34N 37°27' E 025°16'1614.6
2014-Aug-25 08:30N 37°30' E 024°57'2223.9
2014-Aug-25 07:34N 37°31' E 024°29'4421.8
2014-Aug-25 05:33N 37°49' E 023°38'8 1.1
2014-Aug-24 22:30N 37°56' E 023°38'1919.8
2014-Aug-24 21:33N 37°40' E 023°49'2923.9
2014-Aug-24 20:20N 37°31' E 024°24'2024.5
2014-Aug-24 19:32N 37°31' E 024°48'1312.8
2014-Aug-24 18:33N 37°27' E 025°03'1615.5
2014-Aug-24 17:32N 37°31' E 025°22'3024.6
2014-Aug-24 16:18N 37°38' E 025°59'1111.8
2014-Aug-24 15:22N 37°39' E 026°13'2124.4
2014-Aug-24 14:30N 37°48' E 026°37'3 2.8
2014-Aug-24 13:26N 37°48' E 026°41'2124.2
2014-Aug-24 12:33N 37°40' E 026°16'10 9.8
2014-Aug-24 11:32N 37°39' E 026°03'2924.8
2014-Aug-24 10:22N 37°32' E 025°28'810.1
2014-Aug-24 09:33N 37°28' E 025°19'1818.3
2014-Aug-24 08:33N 37°26' E 024°57'2119.4
2014-Aug-24 07:27N 37°31' E 024°30'2224.7
2014-Aug-24 06:33N 37°34' E 024°03'2423.7
2014-Aug-24 05:34N 37°48' E 023°38'9 9.0
2014-Aug-24 04:33N 37°57' E 023°38'0 0.0
2014-Aug-24 03:33N 37°57' E 023°38'0 0.0
2014-Aug-24 02:33N 37°57' E 023°38'0 0.0
2014-Aug-24 01:33N 37°57' E 023°38'0 0.0
2014-Aug-24 00:33N 37°57' E 023°38'0 0.0
2014-Aug-23 23:33N 37°57' E 023°38'0 0.0
2014-Aug-23 22:33N 37°57' E 023°38'0 0.0
2014-Aug-23 21:33N 37°57' E 023°38'0 0.0
2014-Aug-23 20:33N 37°57' E 023°38'7 7.2
2014-Aug-23 19:33N 37°50' E 023°40'7 0.4
2014-Aug-23 03:33N 37°57' E 023°38'0 0.0
2014-Aug-23 02:33N 37°57' E 023°38'0 0.0
2014-Aug-23 01:33N 37°57' E 023°38'0 0.0
2014-Aug-23 00:33N 37°57' E 023°38'0 0.1
2014-Aug-22 22:33N 37°56' E 023°38'1918.5
2014-Aug-22 21:31N 37°39' E 023°49'2824.4
2014-Aug-22 20:22N 37°31' E 024°23'2024.7
2014-Aug-22 19:33N 37°31' E 024°48'1413.7
2014-Aug-22 18:34N 37°27' E 025°04'1515.4
2014-Aug-22 17:33N 37°31' E 025°23'2724.7
2014-Aug-22 16:27N 37°37' E 025°57'1212.3
2014-Aug-22 15:27N 37°39' E 026°12'2224.3
2014-Aug-22 14:33N 37°48' E 026°37'3 2.8
2014-Aug-22 13:25N 37°48' E 026°41'2123.9
2014-Aug-22 12:33N 37°41' E 026°16'1111.0
2014-Aug-22 11:32N 37°39' E 026°03'2424.7
2014-Aug-22 10:33N 37°33' E 025°33'1312.7
2014-Aug-22 09:32N 37°27' E 025°18'1714.8
2014-Aug-22 08:23N 37°30' E 024°57'2024.2
2014-Aug-22 07:33N 37°31' E 024°32'3424.1
2014-Aug-22 06:08N 37°38' E 023°49'1322.9
2014-Aug-22 05:34N 37°48' E 023°38'9 8.7
2014-Aug-22 04:33N 37°57' E 023°38'0 0.0
2014-Aug-22 03:33N 37°57' E 023°38'0 0.0
2014-Aug-22 02:33N 37°57' E 023°38'0 0.0
2014-Aug-22 01:33N 37°57' E 023°38'0 0.0
2014-Aug-22 00:33N 37°57' E 023°38'0 0.0
2014-Aug-21 23:33N 37°57' E 023°38'0 0.0
2014-Aug-21 22:33N 37°57' E 023°38'1615.7
2014-Aug-21 21:33N 37°42' E 023°45'3224.1
2014-Aug-21 20:14N 37°31' E 024°23'1724.9
2014-Aug-21 19:33N 37°31' E 024°44'1111.2
2014-Aug-21 18:32N 37°26' E 024°57'1717.2
2014-Aug-21 17:33N 37°28' E 025°19'2523.6
2014-Aug-21 16:30N 37°35' E 025°48'1913.3
2014-Aug-21 15:03N 37°39' E 026°12'1325.9
2014-Aug-21 14:33N 37°44' E 026°27'1111.1
2014-Aug-21 13:32N 37°48' E 026°41'2120.9
2014-Aug-21 12:33N 37°41' E 026°16'1111.1
2014-Aug-21 11:32N 37°39' E 026°02'3224.6
2014-Aug-21 10:15N 37°31' E 025°23'5 7.6
2014-Aug-21 09:33N 37°28' E 025°19'1817.8
2014-Aug-21 08:33N 37°26' E 024°57'2120.0
2014-Aug-21 07:30N 37°31' E 024°31'2324.4
2014-Aug-21 06:34N 37°35' E 024°02'2323.1
2014-Aug-21 05:33N 37°48' E 023°38'9 8.6
2014-Aug-21 04:33N 37°57' E 023°38'0 0.0
2014-Aug-21 03:34N 37°57' E 023°38'0 0.0
2014-Aug-21 02:34N 37°57' E 023°38'0 0.0
2014-Aug-21 01:33N 37°57' E 023°38'0 0.0
2014-Aug-21 00:34N 37°57' E 023°38'0 0.0
2014-Aug-20 23:34N 37°57' E 023°38'0 0.1
2014-Aug-20 22:33N 37°57' E 023°38'1918.9
2014-Aug-20 21:33N 37°40' E 023°49'2824.2
2014-Aug-20 20:23N 37°31' E 024°23'2724.3
2014-Aug-20 19:17N 37°30' E 024°57'5 7.1
2014-Aug-20 18:31N 37°27' E 025°03'1615.3
2014-Aug-20 17:29N 37°31' E 025°22'2524.7
2014-Aug-20 16:28N 37°36' E 025°53'1512.1
2014-Aug-20 15:13N 37°39' E 026°12'1724.3
2014-Aug-20 14:32N 37°46' E 026°31'9 7.9
2014-Aug-20 13:27N 37°48' E 026°41'2123.6
2014-Aug-20 12:33N 37°40' E 026°16'1211.8
2014-Aug-20 11:33N 37°39' E 026°01'2424.3
2014-Aug-20 10:32N 37°34' E 025°31'1212.6
2014-Aug-20 09:34N 37°27' E 025°18'1716.5
2014-Aug-20 08:33N 37°26' E 024°57'5722.7
2014-Aug-20 06:04N 37°39' E 023°47'1223.2
2014-Aug-20 05:33N 37°48' E 023°38'9 1.3
2014-Aug-19 23:04N 37°57' E 023°38'611.3
2014-Aug-19 22:33N 37°51' E 023°39'  

Dump ship's entire track history